Weather History for KLNS - January, 2006

Change the Weather History Date:

Sunday, January 22, 2006

  Actual Average Record
Temperature  
Mean Temperature 33 °F -  
Max Temperature 41 °F 36 °F 55 °F (1986)
Min Temperature 25 °F 18 °F -16 °F (1984)
Degree Days  
Heating Degree Days 32    
Moisture  
Dew Point 21 °F    
Average Humidity 60    
Maximum Humidity 92    
Minimum Humidity 41    
Precipitation  
Precipitation 0.09 in - - ()
Sea Level Pressure  
Sea Level Pressure 30.58 in    
Wind  
Wind Speed 4 mph (ESE)    
Max Wind Speed 8 mph    
Max Gust Speed -    
Visibility 10 miles    
Events Rain    
Averages and records for this station are not official NWS values.
T = Trace of Precipitation, MM = Missing Value Source: NWS Daily Summary

Daily Weather History Graph

Daily Weather History Graph

Search for Another Location

Airport or City:

Trip Planner

Search our weather history database for the weather conditions in past years. The results will help you decide how hot, cold, wet, or windy it might be!

Date:

Astronomy

Jan. 22, 2006 Rise Set
Actual Time 7:21 AM EST 5:12 PM EST
Civil Twilight 6:52 AM EST 5:41 PM EST
Nautical Twilight 6:19 AM EST 6:14 PM EST
Astronomical Twilight 5:47 AM EST 6:46 PM EST
Moon 12:20 AM EST (1/22) 11:05 AM EST (1/22)
Length of Visible Light 10h 48m
Length of Day
9h 50m
Waning Gibbous, 49% of the Moon is Illuminated
Jan 22
Waning Gibbous
Jan 29
New
Feb 5
First Quarter
Feb 12
Full
Feb 21
Last Quarter

Hourly Weather History & Observations

Time (EST) Temp. Windchill Dew Point Humidity Pressure Visibility Wind Dir Wind Speed Gust Speed Precip Events Conditions
12:53 AM 33.1 °F 28.7 °F 19.0 °F 56% 30.53 in 10.0 mi WNW 4.6 mph - N/A   Clear
1:53 AM 30.0 °F 24.1 °F 19.0 °F 64% 30.55 in 10.0 mi NNW 5.8 mph - N/A   Clear
2:53 AM 28.0 °F 24.2 °F 18.0 °F 66% 30.56 in 10.0 mi WNW 3.5 mph - N/A   Clear
3:53 AM 30.0 °F 25.2 °F 18.0 °F 61% 30.57 in 10.0 mi NW 4.6 mph - N/A   Clear
4:53 AM 28.9 °F - 18.0 °F 64% 30.60 in 10.0 mi Calm Calm - N/A   Clear
5:53 AM 25.0 °F 18.1 °F 18.0 °F 75% 30.61 in 10.0 mi NW 5.8 mph - N/A   Clear
6:53 AM 28.0 °F 22.8 °F 19.0 °F 69% 30.63 in 10.0 mi North 4.6 mph - N/A   Clear
7:53 AM 27.0 °F - 19.9 °F 75% 30.63 in 10.0 mi Calm Calm - N/A   Clear
8:53 AM 30.9 °F 27.5 °F 21.9 °F 69% 30.70 in 10.0 mi SW 3.5 mph - N/A   Clear
9:53 AM 35.1 °F - 21.0 °F 57% 30.71 in 10.0 mi Calm Calm - N/A   Clear
10:53 AM 37.0 °F 34.5 °F 21.0 °F 52% 30.70 in 10.0 mi ENE 3.5 mph - N/A   Clear
11:53 AM 37.9 °F 33.5 °F 21.0 °F 51% 30.66 in 10.0 mi Variable 5.8 mph - N/A   Clear
12:53 PM 39.0 °F 34.0 °F 19.9 °F 46% 30.64 in 10.0 mi Variable 6.9 mph - N/A   Clear
1:53 PM 39.9 °F 36.7 °F 19.0 °F 43% 30.61 in 10.0 mi Variable 4.6 mph - N/A   Clear
2:53 PM 41.0 °F 38.0 °F 19.0 °F 41% 30.59 in 10.0 mi SE 4.6 mph - 0.00 in   Clear
3:53 PM 41.0 °F 36.4 °F 19.9 °F 43% 30.59 in 10.0 mi SE 6.9 mph - N/A   Clear
4:53 PM 39.9 °F 36.7 °F 21.9 °F 49% 30.58 in 10.0 mi SE 4.6 mph - N/A   Mostly Cloudy
5:53 PM 39.9 °F 34.5 °F 19.9 °F 45% 30.57 in 10.0 mi SE 8.1 mph - N/A   Overcast
6:53 PM 39.0 °F 35.7 °F 23.0 °F 53% 30.54 in 10.0 mi ESE 4.6 mph - N/A   Overcast
7:53 PM 39.0 °F 35.7 °F 24.1 °F 55% 30.52 in 10.0 mi East 4.6 mph - N/A   Overcast
8:53 PM 37.9 °F 32.7 °F 25.0 °F 60% 30.49 in 10.0 mi ESE 6.9 mph - 0.00 in Rain Light Rain
9:53 PM 37.0 °F 31.6 °F 27.0 °F 67% 30.48 in 10.0 mi SE 6.9 mph - 0.00 in Rain Light Rain
10:53 PM 35.1 °F 31.0 °F 30.0 °F 82% 30.46 in 8.0 mi ESE 4.6 mph - 0.04 in Rain Rain
11:53 PM 34.0 °F - 32.0 °F 92% 30.43 in 6.0 mi Calm Calm - 0.05 in Rain Rain